Overview Statistics Trail Chart Weather Telemetry Raw packets
 

This is the latest recevied weather packets stored in our database for station/object W5GMO. If no packets are shown the sender has not sent any weather packets the latest 10 day(s).

<< 82 83 84 85 86 87 88 >>
Time Temp. Humidity Pressure Rain* Wind** Luminosity Snow
1788037110 28.89° C 1% 1022 hPa 0 mm - 141 W/m² -
1788036805 28.89° C 1% 1022 hPa 0 mm - 220 W/m² -
1788036503 28.89° C 1% 1022.2 hPa 0 mm - 183 W/m² -
1788036198 28.89° C 1% 1022.7 hPa 0 mm - 225 W/m² -
1788035898 28.89° C 1% 1022.5 hPa 0 mm - 205 W/m² -
1788035597 28.89° C 1% 1022.4 hPa 0 mm - 205 W/m² -
1788035292 29.44° C 1% 1022.6 hPa 0 mm - 191 W/m² -
1788034988 30° C 1% 1022.8 hPa 0 mm - 207 W/m² -
1788034684 29.44° C 1% 1022.8 hPa 0 mm - 210 W/m² -
1788034380 29.44° C 1% 1022.9 hPa 0 mm - 221 W/m² -
1788034076 28.89° C 1% 1023 hPa 0 mm - 202 W/m² -
1788033774 28.89° C 1% 1023.1 hPa 0 mm - 186 W/m² -
1788033474 28.89° C 1% 1023.1 hPa 0 mm - 201 W/m² -
1788033172 29.44° C 1% 1023.3 hPa 0 mm - 228 W/m² -
1788032864 28.89° C 1% 1023.2 hPa 0 mm - 243 W/m² -
1788032564 28.89° C 1% 1023.1 hPa 0 mm - 256 W/m² -
1788032259 28.89° C 1% 1023.3 hPa 0 mm - 228 W/m² -
1788031955 28.89° C 1% 1023.2 hPa 0 mm - 227 W/m² -
1788031651 28.89° C 1% 1023.4 hPa 0 mm - 240 W/m² -
1788031350 28.89° C 1% 1023.4 hPa 0 mm - 235 W/m² -
1788031050 29.44° C 1% 1023.3 hPa 0 mm - 246 W/m² -
1788030745 29.44° C 1% 1023.3 hPa 0 mm - 508 W/m² -
1788030444 30.56° C 1% 1023.6 hPa 0 mm - 609 W/m² -
1788030140 30.56° C 1% 1023.7 hPa 0 mm - 625 W/m² -
1788029839 28.89° C 1% 1023.6 hPa 0 mm - 638 W/m² -

* Rain latest hour (hover to see other rain measurements)
** Current wind speed in m/s (hover to see current wind gust speed)